Weather History for Somerville, NJ

Change the Weather History Date:

Sunday, June 8, 2014

  Actual Average Record
Temperature  
Mean Temperature 68 °F -  
Max Temperature 84 °F 77 °F 96 °F (2011)
Min Temperature 54 °F 54 °F 34 °F (1932)
Cooling Degree Days 3    
Growing Degree Days 18 (Base 50)    
Moisture  
Dew Point 56 °F    
Average Humidity 62    
Maximum Humidity 93    
Minimum Humidity 38    
Precipitation  
Precipitation 0.00 in - - ()
Sea Level Pressure  
Sea Level Pressure 29.91 in    
Wind  
Wind Speed 2 mph (SSW)    
Max Wind Speed 8 mph    
Max Gust Speed -    
Visibility 10 miles    
Events      
Averages and records for this station are not official NWS values.
T = Trace of Precipitation, MM = Missing Value Source: NWS Daily Summary

Daily Weather History Graph

Daily Weather History Graph

Search for Another Location

Airport:

Trip Planner

Search our weather history database for the weather conditions in past years. The results will help you decide how hot, cold, wet, or windy it might be!

Date:

Astronomy

Jun. 08, 2014 Rise Set
Actual Time 5:27 AM EDT 8:27 PM EDT
Civil Twilight 4:54 AM EDT 9:01 PM EDT
Nautical Twilight 4:12 AM EDT 9:43 PM EDT
Astronomical Twilight 3:23 AM EDT 10:32 PM EDT
Moon 3:42 PM EDT (6/8) 2:20 AM EDT (6/8)
Length of Visible Light 16h 06m
Length of Day
15h 00m
Waxing Gibbous, 77% of the Moon is Illuminated
Jun 8
Waxing Gibbous
Jun 13
Full
Jun 19
Last Quarter
Jun 27
New
Jul 5
First Quarter

Hourly Weather History & Observations

Time (EDT) Temp. Heat Index Dew Point Humidity Pressure Visibility Wind Dir Wind Speed Gust Speed Precip Events Conditions
12:53 AM 59.0 °F - 55.9 °F 90% 29.95 in 10.0 mi Calm Calm - N/A   Clear
1:53 AM 57.9 °F - 55.0 °F 90% 29.94 in 10.0 mi Calm Calm - N/A   Clear
2:53 AM 55.9 °F - 53.1 °F 90% 29.93 in 10.0 mi NNW 3.5 mph - N/A   Clear
3:53 AM 55.0 °F - 53.1 °F 93% 29.93 in 10.0 mi Calm Calm - N/A   Clear
4:53 AM 54.0 °F - 52.0 °F 93% 29.94 in 10.0 mi Calm Calm - N/A   Clear
5:53 AM 54.0 °F - 51.1 °F 90% 29.93 in 10.0 mi NW 3.5 mph - N/A   Clear
6:53 AM 57.9 °F - 54.0 °F 87% 29.94 in 10.0 mi Calm Calm - N/A   Clear
7:53 AM 64.9 °F - 57.9 °F 78% 29.95 in 10.0 mi Calm Calm - N/A   Clear
8:53 AM 69.1 °F - 60.1 °F 73% 29.96 in 10.0 mi Calm Calm - N/A   Clear
9:53 AM 75.9 °F - 60.1 °F 58% 29.95 in 10.0 mi West 3.5 mph - N/A   Clear
10:53 AM 80.1 °F 80.1 °F 55.0 °F 42% 29.95 in 10.0 mi Calm Calm - N/A   Clear
11:53 AM 82.0 °F 81.3 °F 54.0 °F 38% 29.93 in 10.0 mi Variable 4.6 mph - N/A   Clear
12:53 PM 82.0 °F 81.4 °F 55.0 °F 39% 29.92 in 10.0 mi South 6.9 mph - N/A   Clear
1:53 PM 82.9 °F 82.6 °F 57.9 °F 42% 29.90 in 10.0 mi Variable 5.8 mph - N/A   Clear
2:53 PM 82.9 °F 82.4 °F 57.0 °F 41% 29.89 in 10.0 mi South 8.1 mph - N/A   Clear
3:53 PM 82.9 °F 82.1 °F 55.9 °F 39% 29.88 in 10.0 mi SSW 6.9 mph - N/A   Clear
4:53 PM 81.0 °F 80.8 °F 55.9 °F 42% 29.87 in 10.0 mi Variable 3.5 mph - N/A   Clear
5:53 PM 79.0 °F - 57.0 °F 47% 29.84 in 10.0 mi Variable 3.5 mph - N/A   Clear
6:53 PM 80.1 °F 80.6 °F 57.9 °F 47% 29.85 in 10.0 mi Calm Calm - N/A   Clear
7:53 PM 75.0 °F - 57.9 °F 55% 29.86 in 10.0 mi Calm Calm - N/A   Clear
8:53 PM 75.0 °F - 55.9 °F 51% 29.87 in 10.0 mi SSE 6.9 mph - N/A   Clear
9:53 PM 73.9 °F - 55.0 °F 52% 29.89 in 9.0 mi South 5.8 mph - N/A   Scattered Clouds
10:53 PM 72.0 °F - 55.0 °F 55% 29.89 in 10.0 mi Calm Calm - N/A   Mostly Cloudy
11:53 PM 69.1 °F - 55.0 °F 61% 29.88 in 10.0 mi SSE 3.5 mph - N/A   Scattered Clouds